Regional Weather Roundup
Issued by NWS Cleveland, OH

Home | Current Version | Previous Version | Graphics & Text | Print | Product List | Glossary On
Versions: 1 2 3 4 5 6 7 8 9 10 11 12 13 14 15 16 17 18 19 20 21 22 23 24 25 26 27 28 29 30 31 32 33 34 35 36 37 38 39 40 41 42 43 44 45 46 47 48 49 50
000
ASUS41 KCLE 221502
RWRCLE
OHIO REGIONAL WEATHER ROUNDUP
NATIONAL WEATHER SERVICE CLEVELAND, OH
1100 AM EDT SUN OCT 22 2017

NOTE: "FAIR" INDICATES FEW OR NO CLOUDS BELOW 12,000 FEET WITH NO
SIGNIFICANT WEATHER AND/OR OBSTRUCTIONS TO VISIBILITY.

OHZ001>008-015>018-024>027-034-035-043-044-221600-
   NORTHWEST OHIO

CITY           SKY/WX    TMP DP  RH WIND       PRES   REMARKS
DEFIANCE       SUNNY     67  52  58 S12G18    30.15F
FINDLAY        SUNNY     68  52  56 S10       30.18F
TOLEDO EXPRESS SUNNY     68  55  63 S9        30.16F
TOLEDO EXEC    SUNNY     68  53  58 S15       30.18F
LIMA           SUNNY     69  53  56 S13G24    30.17F
$$

OHZ009>014-019>023-028>033-038-089-221600-
   NORTHEAST OHIO

CITY           SKY/WX    TMP DP  RH WIND       PRES   REMARKS
CLE-HOPKINS    MOSUNNY   68  52  56 S9        30.26R
CLE-LAKEFRONT  SUNNY     66  51  58 S13       30.23R
CUY CO. ARPT   MOSUNNY   68  54  60 S14       30.24S
LORAIN-ELYRIA  SUNNY     65  49  56 S9        30.24S
ASHTABULA      CLOUDY    64  54  69 S9        30.27S
AKRON-CANTON   CLOUDY    68  52  56 S10       30.27S
WOOSTER        SUNNY     67  52  58 S7        30.27R
MANSFIELD      SUNNY     68  50  52 S14       30.25R
YOUNGSTOWN     CLOUDY    66  53  63 S9        30.27F
$$

OHZ042-051>053-060>062-070>072-077>081-221600-
  SOUTHWEST OHIO

CITY           SKY/WX    TMP DP  RH WIND       PRES   REMARKS
CINC-COVINGTON MOSUNNY   68  53  58 S13       30.20S
CINC-LUNKEN    SUNNY     67  55  65 S8        30.22F
HAMILTON       SUNNY     68  52  56 VRB7      30.21F
DAYTON         PTSUNNY   68  52  56 S15       30.21F
WRIGHT-PAT AFB SUNNY     69  51  53 S15       30.20F
DAYTON GENERAL SUNNY     68  50  52 S17       30.20F
WILMINGTON     SUNNY     68  53  58 S12       30.22F
$$

OHZ036-037-039>041-045>050-054>059-063>069-073>076-082>088-221600-
  CENTRAL AND SOUTHEAST OHIO

CITY           SKY/WX    TMP DP  RH WIND       PRES   REMARKS
COLUMBUS       PTSUNNY   69  53  56 S10       30.24F
OSU AIRPORT    SUNNY     65  54  67 S9        30.24F
BOLTON FIELD   SUNNY     66  54  63 S10       30.24F
RICKENBACK AFB SUNNY     67  52  60 S10       30.24F
NEWARK         CLOUDY    67  52  58 SE6       30.25F
MARION         SUNNY     68  49  50 S16G25    30.23F
LANCASTER      SUNNY     65  55  70 SE8       30.26F
ZANESVILLE     CLOUDY    64  53  67 S7        30.29R
NEW PHILLY     NOT AVBL
$$




USA.gov is the U.S. government's official web portal to all federal, state and local government web resources and services.